GW1126 Weather Reports


time (UTC)temp
C
wind
direction
speed
KPH
gust
KPH
rain 1hr
cm
rain 24hr
cm
rain mn
cm
humidity
%
barometer
mb
20260507151344 13 239 3.2 3.2 0.00 0.00 0.00 50 1014.4
20260507150842 13 259 0.0 1.6 0.00 0.00 0.00 52 1014.4
20260507150338 13 217 0.0 1.6 0.00 0.00 0.00 53 1014.7
20260507145835 12 309 1.6 1.6 0.00 0.00 0.00 54 1014.4
20260507145331 12 295 0.0 0.0 0.00 0.00 0.00 55 1014.4
20260507144828 12 242 4.8 9.7 0.00 0.00 0.00 56 1014.6
20260507144320 12 266 1.6 4.8 0.00 0.00 0.00 56 1014.6
20260507143816 11 238 0.0 0.0 0.00 0.00 0.00 58 1014.6
20260507143314 11 293 0.0 1.6 0.00 0.00 0.00 60 1014.5
20260507142809 11 6 0.0 0.0 0.00 0.00 0.00 59 1014.3
20260507142307 10 333 0.0 0.0 0.00 0.00 0.00 62 1014.6
20260507141803 10 302 0.0 1.6 0.00 0.00 0.00 62 1014.5
20260507141300 10 260 1.6 3.2 0.00 0.00 0.00 62 1014.4
20260507140756 9 260 0.0 0.0 0.00 0.00 0.00 64 1014.6
20260507140253 8 279 0.0 0.0 0.00 0.00 0.00 65 1014.5
20260507135750 8 257 0.0 0.0 0.00 0.00 0.00 67 1014.6
20260507135248 8 276 4.8 11.3 0.00 0.00 0.00 68 1014.4
20260507134744 7 288 0.0 0.0 0.00 0.00 0.00 69 1014.6
20260507134240 7 258 9.7 14.5 0.00 0.00 0.00 69 1014.7
20260507133736 7 249 6.4 11.3 0.00 0.00 0.00 70 1014.5
20260507133233 7 292 4.8 11.3 0.00 0.00 0.00 71 1014.6
20260507132731 7 260 0.0 1.6 0.00 0.00 0.00 72 1014.7
20260507132227 6 275 0.0 0.0 0.00 0.00 0.00 73 1014.5
20260507131724 6 269 1.6 3.2 0.00 0.00 0.00 73 1014.5
20260507131221 6 257 0.0 0.0 0.00 0.00 0.00 74 1014.5
20260507130718 6 287 1.6 4.8 0.00 0.00 0.00 75 1014.4
20260507130216 5 264 0.0 3.2 0.00 0.00 0.00 77 1014.4
20260507125714 5 284 0.0 0.0 0.00 0.00 0.00 79 1014.5
20260507125212 5 235 0.0 0.0 0.00 0.00 0.00 79 1014.3
20260507124708 4 241 0.0 0.0 0.00 0.00 0.00 80 1014.4
20260507124205 4 290 0.0 0.0 0.00 0.00 0.00 80 1014.3
20260507123703 3 252 0.0 1.6 0.00 0.00 0.00 80 1014.4
20260507123200 3 275 0.0 0.0 0.00 0.00 0.00 81 1014.0
20260507122655 3 258 1.6 1.6 0.00 0.00 0.00 81 1014.5
20260507122151 3 252 0.0 0.0 0.00 0.00 0.00 81 1014.1
20260507121648 3 246 0.0 0.0 0.00 0.00 0.00 81 1014.1
20260507121143 3 242 0.0 0.0 0.00 0.00 0.00 82 1014.3
20260507120640 3 209 0.0 0.0 0.00 0.00 0.00 82 1014.3
20260507120137 3 241 0.0 0.0 0.00 0.00 0.00 82 1014.3
20260507115633 3 253 0.0 0.0 0.00 0.00 0.00 82 1014.3
20260507115128 3 236 0.0 0.0 0.00 0.00 0.00 82 1014.3
20260507114625 3 248 0.0 0.0 0.00 0.00 0.00 82 1014.3
20260507114122 3 207 0.0 0.0 0.00 0.00 0.00 82 1014.4
20260507113619 3 230 0.0 0.0 0.00 0.00 0.00 82 1014.4
20260507113116 3 242 0.0 0.0 0.00 0.00 0.00 82 1014.3
20260507112614 3 224 0.0 0.0 0.00 0.00 0.00 82 1014.4
20260507112111 3 226 0.0 0.0 0.00 0.00 0.00 81 1014.7
20260507111608 3 221 0.0 0.0 0.00 0.00 0.00 81 1014.4
20260507111104 3 236 0.0 1.6 0.00 0.00 0.00 81 1014.5
20260507110601 3 277 0.0 0.0 0.00 0.00 0.00 81 1014.4
20260507110057 3 246 0.0 3.2 0.00 0.00 0.00 81 1014.4
20260507105554 3 263 1.6 4.8 0.00 0.00 0.00 80 1014.6
20260507105050 3 275 1.6 4.8 0.00 0.00 0.00 81 1014.5
20260507104548 3 262 1.6 8.0 0.00 0.00 0.00 81 1014.7
20260507104044 3 205 0.0 0.0 0.00 0.00 0.00 81 1014.8
20260507103540 3 274 0.0 0.0 0.00 0.00 0.00 81 1014.7
20260507103037 3 218 0.0 0.0 0.00 0.00 0.00 81 1014.7
20260507102534 3 271 0.0 0.0 0.00 0.00 0.00 81 1014.8
20260507102031 3 271 0.0 0.0 0.00 0.00 0.00 80 1014.8
20260507101525 3 231 0.0 0.0 0.00 0.00 0.00 80 1014.9
20260507101022 3 223 0.0 3.2 0.00 0.00 0.00 79 1014.9
20260507100519 4 229 0.0 0.0 0.00 0.00 0.00 79 1015.0
20260507100017 4 227 6.4 12.9 0.00 0.00 0.00 79 1015.1
20260507095515 4 203 3.2 4.8 0.00 0.00 0.00 78 1015.2
20260507095011 4 282 0.0 0.0 0.00 0.00 0.00 78 1015.3
20260507094508 4 223 0.0 0.0 0.00 0.00 0.00 77 1015.1
20260507094005 4 193 0.0 0.0 0.00 0.00 0.00 77 1015.4
20260507093502 5 213 0.0 0.0 0.00 0.00 0.00 77 1015.4
20260507093001 5 257 0.0 1.6 0.00 0.00 0.00 76 1015.1
20260507092456 5 214 1.6 4.8 0.00 0.00 0.00 76 1015.2
20260507091953 5 235 0.0 0.0 0.00 0.00 0.00 76 1015.4
20260507091450 5 194 0.0 0.0 0.00 0.00 0.00 75 1015.6
20260507090946 5 248 0.0 1.6 0.00 0.00 0.00 75 1015.4
20260507090442 5 222 0.0 0.0 0.00 0.00 0.00 76 1015.6
20260507085939 5 236 0.0 0.0 0.00 0.00 0.00 76 1015.8
20260507085436 5 208 0.0 0.0 0.00 0.00 0.00 76 1015.9
20260507084933 5 240 1.6 3.2 0.00 0.00 0.00 76 1015.9
20260507084430 5 207 0.0 0.0 0.00 0.00 0.00 76 1015.9
20260507083927 5 239 9.7 14.5 0.00 0.00 0.00 76 1015.9
20260507083423 5 247 0.0 0.0 0.00 0.00 0.00 76 1016.0
20260507082919 5 261 8.0 14.5 0.00 0.00 0.00 76 1016.2
20260507082415 5 242 0.0 0.0 0.00 0.00 0.00 76 1016.1
20260507081913 5 230 0.0 0.0 0.00 0.00 0.00 76 1016.4
20260507081408 5 267 3.2 4.8 0.00 0.00 0.00 76 1016.2
20260507080905 5 265 0.0 1.6 0.00 0.00 0.00 77 1016.4
20260507080402 5 226 0.0 1.6 0.00 0.00 0.00 78 1016.4
20260507075857 5 267 1.6 8.0 0.00 0.00 0.00 79 1016.6
20260507075353 5 248 0.0 0.0 0.00 0.00 0.00 79 1016.8
20260507074850 5 235 1.6 3.2 0.00 0.00 0.00 79 1016.8
20260507074347 5 240 8.0 11.3 0.00 0.00 0.00 79 1017.0
20260507073844 5 219 0.0 0.0 0.00 0.00 0.00 79 1016.5
20260507073341 5 274 0.0 0.0 0.00 0.00 0.00 79 1017.0
20260507072838 5 241 1.6 3.2 0.00 0.00 0.00 80 1017.0
20260507072336 5 272 0.0 1.6 0.00 0.00 0.00 80 1017.0
20260507071833 5 224 0.0 0.0 0.00 0.00 0.00 80 1016.8
20260507071330 5 256 1.6 4.8 0.00 0.00 0.00 80 1017.1
20260507070826 5 213 1.6 3.2 0.00 0.00 0.00 80 1017.0
20260507070324 5 222 3.2 3.2 0.00 0.00 0.00 80 1017.3
20260507065820 5 209 0.0 0.0 0.00 0.00 0.00 80 1017.2
20260507065317 5 227 1.6 3.2 0.00 0.00 0.00 79 1016.9
20260507064814 5 220 0.0 0.0 0.00 0.00 0.00 79 1017.1
20260507064313 5 253 0.0 1.6 0.00 0.00 0.00 79 1017.2
20260507063810 5 240 0.0 1.6 0.00 0.00 0.00 79 1017.2
20260507063307 5 206 0.0 1.6 0.00 0.00 0.00 78 1016.9
20260507062804 5 187 6.4 9.7 0.00 0.00 0.00 78 1017.1
20260507062301 5 211 0.0 3.2 0.00 0.00 0.00 78 1017.4
20260507061759 5 246 0.0 0.0 0.00 0.00 0.00 79 1017.5
20260507061256 6 207 0.0 1.6 0.00 0.00 0.00 78 1017.3
20260507060754 6 222 3.2 11.3 0.00 0.00 0.00 78 1017.4
20260507060250 6 210 6.4 9.7 0.00 0.00 0.00 78 1017.7
20260507055747 6 223 6.4 9.7 0.00 0.00 0.00 77 1017.4
20260507055242 6 212 0.0 1.6 0.00 0.00 0.00 77 1017.5
20260507054739 6 189 9.7 17.7 0.00 0.00 0.00 76 1017.5
20260507054236 6 191 4.8 12.9 0.00 0.00 0.00 76 1017.3
20260507053733 6 170 1.6 8.0 0.00 0.00 0.00 75 1017.8
20260507053231 6 174 1.6 4.8 0.00 0.00 0.00 75 1017.9
20260507052730 6 246 6.4 12.9 0.00 0.00 0.00 75 1017.7
20260507052225 6 205 1.6 4.8 0.00 0.00 0.00 74 1017.8
20260507051724 6 245 1.6 3.2 0.00 0.00 0.00 74 1017.9
20260507051220 6 242 3.2 8.0 0.00 0.00 0.00 74 1017.8
20260507050717 6 264 3.2 4.8 0.00 0.00 0.00 73 1018.1
20260507050214 6 193 0.0 1.6 0.00 0.00 0.00 73 1018.1
20260507045711 7 203 0.0 0.0 0.00 0.00 0.00 73 1017.9
20260507045207 7 226 3.2 8.0 0.00 0.00 0.00 72 1018.2
20260507044704 7 167 4.8 9.7 0.00 0.00 0.00 72 1018.2
20260507044201 7 222 4.8 9.7 0.00 0.00 0.00 72 1018.3
20260507043657 7 244 3.2 9.7 0.00 0.00 0.00 72 1018.4
20260507043154 6 208 6.4 11.3 0.00 0.00 0.00 72 1018.4
20260507042650 6 199 0.0 3.2 0.00 0.00 0.00 73 1018.6
20260507042145 6 216 1.6 3.2 0.00 0.00 0.00 72 1018.6
20260507041643 7 223 0.0 1.6 0.00 0.00 0.00 71 1018.7
20260507041138 7 200 0.0 1.6 0.00 0.00 0.00 71 1018.7
20260507040636 7 219 3.2 4.8 0.00 0.00 0.00 70 1018.6
20260507040132 7 229 6.4 8.0 0.00 0.00 0.00 69 1018.7
20260507035628 7 214 4.8 11.3 0.00 0.00 0.00 68 1018.9
20260507035124 7 219 1.6 3.2 0.00 0.00 0.00 67 1018.6
20260507034621 7 223 1.6 3.2 0.00 0.00 0.00 67 1018.6
20260507034119 7 220 1.6 4.8 0.00 0.00 0.00 66 1018.6
20260507033617 7 209 0.0 0.0 0.00 0.00 0.00 64 1018.6
20260507033114 7 215 0.0 0.0 0.00 0.00 0.00 63 1018.7
20260507032611 7 235 0.0 3.2 0.00 0.00 0.00 62 1018.9
20260507032107 7 252 1.6 4.8 0.00 0.00 0.00 61 1018.7
20260507031604 8 204 0.0 0.0 0.00 0.00 0.00 60 1018.9
20260507031101 8 191 1.6 3.2 0.00 0.00 0.00 59 1018.7
20260507030557 8 209 0.0 1.6 0.00 0.00 0.00 58 1018.9
20260507030056 8 221 0.0 0.0 0.00 0.00 0.00 56 1018.9
20260507025552 8 230 0.0 1.6 0.00 0.00 0.00 56 1019.1
20260507025049 8 235 0.0 0.0 0.00 0.00 0.00 55 1018.9
20260507024547 8 215 0.0 3.2 0.00 0.00 0.00 54 1018.9
20260507024044 8 216 1.6 8.0 0.00 0.00 0.00 53 1018.9
20260507023539 8 264 0.0 0.0 0.00 0.00 0.00 52 1018.8
20260507023038 8 209 0.0 0.0 0.00 0.00 0.00 51 1018.9
20260507022534 8 242 0.0 0.0 0.00 0.00 0.00 50 1018.7
20260507022029 9 217 0.0 0.0 0.00 0.00 0.00 49 1018.7
20260507021525 9 205 0.0 0.0 0.00 0.00 0.00 48 1018.6
20260507021022 9 270 1.6 3.2 0.00 0.00 0.00 47 1018.6
20260507020520 10 199 0.0 0.0 0.00 0.00 0.00 46 1018.5
20260507020016 10 211 0.0 0.0 0.00 0.00 0.00 45 1018.6
20260507015515 10 194 0.0 0.0 0.00 0.00 0.00 44 1018.8
20260507015012 10 236 0.0 0.0 0.00 0.00 0.00 43 1018.6
20260507014508 11 226 1.6 3.2 0.00 0.00 0.00 42 1018.5
20260507014004 11 255 0.0 0.0 0.00 0.00 0.00 41 1018.6
20260507013501 11 261 0.0 0.0 0.00 0.00 0.00 41 1018.4
20260507012958 11 268 0.0 0.0 0.00 0.00 0.00 40 1018.6
20260507012455 11 278 0.0 0.0 0.00 0.00 0.00 39 1018.7
20260507011951 11 272 0.0 0.0 0.00 0.00 0.00 39 1018.7
20260507011448 12 185 0.0 0.0 0.00 0.00 0.00 38 1018.5
20260507010944 12 202 0.0 0.0 0.00 0.00 0.00 38 1018.6
20260507010439 12 214 4.8 9.7 0.00 0.00 0.00 37 1018.5
20260507005936 12 253 0.0 0.0 0.00 0.00 0.00 38 1018.7
20260507005433 12 255 1.6 3.2 0.00 0.00 0.00 37 1018.7
20260507004930 12 264 0.0 0.0 0.00 0.00 0.00 38 1018.6
20260507004426 12 261 0.0 0.0 0.00 0.00 0.00 38 1018.7
20260507003924 12 242 1.6 8.0 0.00 0.00 0.00 36 1018.8
20260507003419 12 258 8.0 9.7 0.00 0.00 0.00 35 1018.8
20260507002914 12 263 0.0 0.0 0.00 0.00 0.00 35 1018.9
20260507002410 12 296 4.8 8.0 0.00 0.00 0.00 35 1019.0
20260507001908 12 285 8.0 11.3 0.00 0.00 0.00 33 1018.8
20260507001405 13 262 9.7 11.3 0.00 0.00 0.00 33 1019.0
20260507000902 13 253 11.3 14.5 0.00 0.00 0.00 32 1018.8
20260507000358 12 267 3.2 11.3 0.00 0.00 0.00 36 1018.9
20260506235853 12 258 0.0 0.0 0.00 0.00 0.00 35 1018.8
20260506235351 12 268 0.0 0.0 0.00 0.00 0.00 37 1018.9
20260506234846 12 221 0.0 0.0 0.00 0.00 0.00 36 1018.9
20260506234344 12 278 4.8 8.0 0.00 0.00 0.00 37 1019.3
20260506233842 12 256 1.6 4.8 0.00 0.00 0.00 33 1019.3
20260506233337 13 261 1.6 4.8 0.00 0.00 0.00 35 1019.4
20260506232835 13 269 1.6 8.0 0.00 0.00 0.00 34 1019.5
20260506232330 13 246 4.8 4.8 0.00 0.00 0.00 33 1019.0
20260506231827 14 324 0.0 0.0 0.00 0.00 0.00 36 1019.1
20260506231324 13 207 3.2 8.0 0.00 0.00 0.00 35 1019.0
20260506230822 13 184 1.6 4.8 0.00 0.00 0.00 35 1018.9
20260506230319 13 262 9.7 12.9 0.00 0.00 0.00 34 1019.0
20260506225814 13 287 4.8 11.3 0.00 0.00 0.00 34 1019.4
20260506225312 13 259 4.8 4.8 0.00 0.00 0.00 34 1019.0
20260506224809 12 264 0.0 0.0 0.00 0.00 0.00 36 1019.1
20260506224306 12 287 8.0 11.3 0.00 0.00 0.00 33 1019.4
20260506223802 12 228 6.4 11.3 0.00 0.00 0.00 33 1019.3
20260506223257 13 256 0.0 0.0 0.00 0.00 0.00 32 1019.1
20260506222755 12 287 0.0 0.0 0.00 0.00 0.00 32 1019.5
20260506222250 12 303 8.0 11.3 0.00 0.00 0.00 32 1019.6
20260506221748 12 277 1.6 4.8 0.00 0.00 0.00 31 1019.7
20260506221246 13 308 4.8 11.3 0.00 0.00 0.00 30 1019.6
20260506220743 13 250 12.9 14.5 0.00 0.00 0.00 30 1019.6
20260506220238 14 267 0.0 0.0 0.00 0.00 0.00 28 1019.8
20260506215735 13 266 0.0 0.0 0.00 0.00 0.00 31 1019.7
20260506215230 13 291 1.6 1.6 0.00 0.00 0.00 32 1020.1
20260506214722 13 214 0.0 0.0 0.00 0.00 0.00 32 1019.9
20260506214219 12 238 3.2 8.0 0.00 0.00 0.00 34 1020.1
20260506213717 12 318 0.0 0.0 0.00 0.00 0.00 35 1019.9
20260506213214 12 344 0.0 0.0 0.00 0.00 0.00 36 1020.4
20260506212711 11 250 0.0 0.0 0.00 0.00 0.00 37 1020.1
20260506212206 12 256 0.0 0.0 0.00 0.00 0.00 36 1020.4
20260506211702 12 286 0.0 0.0 0.00 0.00 0.00 38 1020.3
20260506211158 12 247 3.2 8.0 0.00 0.00 0.00 37 1020.4
20260506210655 12 256 8.0 11.3 0.00 0.00 0.00 37 1020.2
20260506210152 12 245 0.0 0.0 0.00 0.00 0.00 36 1020.4
20260506205650 13 257 6.4 16.1 0.00 0.00 0.00 34 1020.6
20260506205144 12 266 0.0 0.0 0.00 0.00 0.00 35 1020.8
20260506204642 13 242 1.6 3.2 0.00 0.00 0.00 36 1020.6
20260506204139 13 260 14.5 17.7 0.00 0.00 0.00 34 1020.9
20260506203637 12 199 0.0 0.0 0.00 0.00 0.00 36 1020.8
20260506203133 12 157 0.0 0.0 0.00 0.00 0.00 37 1020.8
20260506202632 12 267 0.0 0.0 0.00 0.00 0.00 35 1021.0
20260506202127 12 200 9.7 14.5 0.00 0.00 0.00 36 1021.1
20260506201625 12 247 0.0 0.0 0.00 0.00 0.00 37 1021.1
20260506201121 12 246 6.4 11.3 0.00 0.00 0.00 37 1021.1
20260506200618 12 233 6.4 11.3 0.00 0.00 0.00 36 1021.3
20260506200115 12 233 4.8 9.7 0.00 0.00 0.00 35 1021.2
20260506195611 13 14 12.9 17.7 0.00 0.00 0.00 34 1021.4
20260506195108 12 233 0.0 0.0 0.00 0.00 0.00 36 1021.3
20260506194605 12 249 4.8 9.7 0.00 0.00 0.00 35 1021.4
20260506194101 12 287 8.0 14.5 0.00 0.00 0.00 36 1021.2
20260506193559 11 230 1.6 3.2 0.00 0.00 0.00 36 1021.4
20260506193056 11 185 0.0 0.0 0.00 0.00 0.00 38 1021.3
20260506192553 12 217 0.0 1.6 0.00 0.00 0.00 35 1021.6
20260506192049 12 249 4.8 11.3 0.00 0.00 0.00 36 1021.2
20260506191545 11 189 0.0 0.0 0.00 0.00 0.00 38 1021.5
20260506191041 10 214 0.0 0.0 0.00 0.00 0.00 39 1021.7
20260506190539 11 208 0.0 1.6 0.00 0.00 0.00 36 1021.7
20260506190036 12 235 8.0 11.3 0.00 0.00 0.00 38 1021.9
20260506185533 12 238 1.6 3.2 0.00 0.00 0.00 35 1021.9
20260506185030 11 251 3.2 4.8 0.00 0.00 0.00 35 1021.9
20260506184527 11 265 6.4 9.7 0.00 0.00 0.00 38 1021.7
20260506184024 12 208 1.6 1.6 0.00 0.00 0.00 40 1022.0
20260506183520 10 232 0.0 0.0 0.00 0.00 0.00 42 1022.0
20260506183017 11 209 4.8 11.3 0.00 0.00 0.00 40 1022.3
20260506182514 11 67 0.0 0.0 0.00 0.00 0.00 41 1022.2
20260506182011 11 138 0.0 0.0 0.00 0.00 0.00 40 1022.3
20260506181509 11 185 0.0 0.0 0.00 0.00 0.00 40 1022.4
20260506181006 11 221 0.0 0.0 0.00 0.00 0.00 40 1022.4
20260506180502 10 317 1.6 1.6 0.00 0.00 0.00 41 1022.6
20260506175959 10 351 0.0 0.0 0.00 0.00 0.00 43 1022.6
20260506175455 10 230 0.0 0.0 0.00 0.00 0.00 41 1022.8
20260506174952 10 298 0.0 0.0 0.00 0.00 0.00 43 1022.6
20260506174450 11 42 0.0 0.0 0.00 0.00 0.00 42 1022.8
20260506173946 10 234 0.0 1.6 0.00 0.00 0.00 41 1022.6
20260506173444 10 255 0.0 0.0 0.00 0.00 0.00 41 1022.7
20260506172940 10 242 3.2 8.0 0.00 0.00 0.00 41 1022.7
20260506172438 10 259 0.0 0.0 0.00 0.00 0.00 41 1022.7
20260506171934 10 52 0.0 0.0 0.00 0.00 0.00 43 1022.7
20260506171431 10 255 6.4 11.3 0.00 0.00 0.00 42 1022.5
20260506170924 10 343 0.0 0.0 0.00 0.00 0.00 44 1022.6
20260506170419 10 183 0.0 0.0 0.00 0.00 0.00 43 1022.7
20260506165913 10 193 3.2 3.2 0.00 0.00 0.00 42 1022.7
20260506165411 9 216 0.0 0.0 0.00 0.00 0.00 43 1022.9
20260506164907 10 256 0.0 0.0 0.00 0.00 0.00 42 1022.8
20260506164403 10 202 0.0 0.0 0.00 0.00 0.00 43 1022.8
20260506163901 10 214 1.6 3.2 0.00 0.00 0.00 43 1022.8
20260506163356 10 187 0.0 3.2 0.00 0.00 0.00 41 1022.8
20260506162851 9 22 0.0 0.0 0.00 0.00 0.00 45 1022.7
20260506162349 10 8 3.2 4.8 0.00 0.00 0.00 45 1022.7
20260506161847 8 138 0.0 0.0 0.00 0.00 0.00 45 1022.8
20260506161344 9 5 3.2 4.8 0.00 0.00 0.00 47 1022.8
20260506160841 8 292 0.0 0.0 0.00 0.00 0.00 47 1022.6
20260506160339 8 338 0.0 0.0 0.00 0.00 0.00 47 1022.5
20260506155837 8 338 0.0 0.0 0.00 0.00 0.00 49 1022.6
20260506155333 9 307 0.0 0.0 0.00 0.00 0.00 48 1022.6
20260506153450 9 328 0.0 0.0 0.00 0.00 0.00 47 1022.5
20260506152948 8 258 0.0 1.6 0.00 0.00 0.00 48 1022.4
20260506152445 8 56 0.0 1.6 0.00 0.00 0.00 48 1022.5
20260506151943 9 314 0.0 0.0 0.00 0.00 0.00 48 1022.5